FIN165 EPWA-EFHK

Flight info

Callsign FIN165
Flight time 1h 20m
Altitude 35000
Route BAMSO7G BAMSO Z182 ASLUX DCT BULEP M857 UNPEG DCT BOKSU DCT GUNTA M857 SOKVA DCT ANAMA DCT KEMET DCT KEXLE DCT BEKNA DCT INTOR INTOR6A
Aircraft A321/M-SDE3FGHIRWY/LB1

Departure

Time 2026-05-06 07:23
Airport Warsaw Chopin Airport (EPWA)

Arrival

Time 2026-05-06 08:44
Airport Helsinki Vantaa Airport (EFHK)
Time Latitude Longitude Altitude Speed Heading
2026-05-06 06:45 52.17094 20.97063 335 ft 0 kts 75°
2026-05-06 06:59 52.17094 20.97062 339 ft 0 kts 75°
2026-05-06 07:12 52.17092 20.97046 333 ft 4 kts 75°
2026-05-06 07:13 52.17085 20.97005 335 ft 2 kts 75°
2026-05-06 07:13 52.17077 20.96975 334 ft 4 kts 60°
2026-05-06 07:13 52.17067 20.96942 334 ft 4 kts 96°
2026-05-06 07:13 52.17079 20.96910 334 ft 4 kts 147°
2026-05-06 07:14 52.17101 20.96890 335 ft 4 kts 152°
2026-05-06 07:14 52.17115 20.96877 335 ft 1 kts 152°
2026-05-06 07:17 52.17106 20.96886 335 ft 5 kts 151°
2026-05-06 07:18 52.17056 20.96929 333 ft 11 kts 152°
2026-05-06 07:18 52.16968 20.97006 336 ft 17 kts 152°
2026-05-06 07:18 52.16881 20.97082 335 ft 9 kts 152°
2026-05-06 07:18 52.16819 20.97136 338 ft 11 kts 152°
2026-05-06 07:19 52.16762 20.97186 336 ft 9 kts 151°
2026-05-06 07:19 52.16702 20.97238 336 ft 10 kts 152°
2026-05-06 07:19 52.16636 20.97295 337 ft 9 kts 152°
2026-05-06 07:19 52.16585 20.97349 336 ft 8 kts 134°
2026-05-06 07:20 52.16558 20.97427 335 ft 9 kts 115°
2026-05-06 07:20 52.16532 20.97522 337 ft 10 kts 114°
2026-05-06 07:20 52.16502 20.97628 336 ft 11 kts 115°
2026-05-06 07:20 52.16469 20.97745 337 ft 12 kts 115°
2026-05-06 07:21 52.16433 20.97873 336 ft 13 kts 115°
2026-05-06 07:21 52.16394 20.98012 333 ft 14 kts 115°
2026-05-06 07:21 52.16353 20.98161 336 ft 15 kts 114°
2026-05-06 07:21 52.16317 20.98291 336 ft 8 kts 114°
2026-05-06 07:22 52.16272 20.98346 338 ft 6 kts 182°
2026-05-06 07:22 52.16228 20.98322 338 ft 8 kts 202°
2026-05-06 07:22 52.16178 20.98270 335 ft 10 kts 226°
2026-05-06 07:22 52.16169 20.98156 338 ft 15 kts 289°
2026-05-06 07:23 52.16292 20.97719 334 ft 78 kts 294°
2026-05-06 07:23 52.16609 20.96574 353 ft 140 kts 294°
2026-05-06 07:23 52.17074 20.94904 489 ft 174 kts 294°
2026-05-06 07:23 52.17574 20.93138 1219 ft 171 kts 292°
2026-05-06 07:24 52.18077 20.91364 1788 ft 180 kts 291°
2026-05-06 07:24 52.18950 20.89726 2045 ft 210 kts 326°
2026-05-06 07:24 52.20432 20.89115 2273 ft 236 kts 358°
2026-05-06 07:24 52.22072 20.89974 2498 ft 262 kts 34°
2026-05-06 07:25 52.23544 20.91944 2889 ft 280 kts 43°
2026-05-06 07:25 52.24980 20.94085 3644 ft 284 kts 45°
2026-05-06 07:25 52.26425 20.96296 4445 ft 286 kts 46°
2026-05-06 07:25 52.27881 20.98532 5245 ft 289 kts 46°
2026-05-06 07:26 52.29374 21.00770 6008 ft 294 kts 41°
2026-05-06 07:26 52.31122 21.02589 6708 ft 300 kts 33°
2026-05-06 07:26 52.32929 21.04331 7422 ft 304 kts 33°
2026-05-06 07:26 52.34763 21.06098 8126 ft 308 kts 32°
2026-05-06 07:27 52.36634 21.07898 8799 ft 314 kts 32°
2026-05-06 07:27 52.38535 21.09732 9468 ft 319 kts 32°
2026-05-06 07:27 52.40466 21.11596 10049 ft 328 kts 32°
2026-05-06 07:27 52.42477 21.13545 10208 ft 351 kts 32°
2026-05-06 07:28 52.44648 21.15653 10337 ft 373 kts 32°
2026-05-06 07:28 52.46947 21.17890 10459 ft 394 kts 32°
2026-05-06 07:28 52.51868 21.22687 11035 ft 422 kts 31°
2026-05-06 07:29 52.54409 21.25162 11647 ft 426 kts 31°
2026-05-06 07:29 52.56964 21.27652 12288 ft 429 kts 31°
2026-05-06 07:29 52.59543 21.30171 12942 ft 432 kts 31°
2026-05-06 07:29 52.62136 21.32707 13621 ft 435 kts 31°
2026-05-06 07:30 52.64748 21.35266 14198 ft 438 kts 31°
2026-05-06 07:30 52.67376 21.37844 14773 ft 441 kts 31°
2026-05-06 07:30 52.69991 21.40413 15329 ft 445 kts 31°
2026-05-06 07:30 52.72659 21.43041 15866 ft 448 kts 31°
2026-05-06 07:31 52.75346 21.45693 16405 ft 451 kts 31°
2026-05-06 07:31 52.78050 21.48364 16921 ft 454 kts 31°
2026-05-06 07:31 52.80766 21.51055 17459 ft 457 kts 31°
2026-05-06 07:31 52.83503 21.53773 17945 ft 460 kts 31°
2026-05-06 07:32 52.86259 21.56512 18374 ft 463 kts 31°
2026-05-06 07:32 52.89029 21.59264 18810 ft 466 kts 31°
2026-05-06 07:32 52.91820 21.62040 19245 ft 469 kts 31°
2026-05-06 07:32 52.94622 21.64828 19667 ft 471 kts 31°
2026-05-06 07:33 52.97442 21.67637 20090 ft 474 kts 31°
2026-05-06 07:33 53.00277 21.70464 20512 ft 477 kts 31°
2026-05-06 07:33 53.03126 21.73313 20937 ft 479 kts 30°
2026-05-06 07:33 53.05985 21.76180 21361 ft 482 kts 31°
2026-05-06 07:34 53.08860 21.79071 21758 ft 484 kts 31°
2026-05-06 07:34 53.11752 21.81982 22156 ft 486 kts 31°
2026-05-06 07:34 53.14655 21.84909 22535 ft 489 kts 31°
2026-05-06 07:34 53.17573 21.87857 22923 ft 491 kts 31°
2026-05-06 07:35 53.20214 21.90527 23262 ft 494 kts 31°
2026-05-06 07:35 53.23151 21.93503 23612 ft 496 kts 31°
2026-05-06 07:35 53.25544 21.95932 23889 ft 498 kts 31°
2026-05-06 07:35 53.28023 21.98448 24183 ft 499 kts 31°
2026-05-06 07:36 53.30840 22.01314 24486 ft 501 kts 31°
2026-05-06 07:36 53.33101 22.03618 24733 ft 503 kts 31°
2026-05-06 07:36 53.35773 22.06340 25028 ft 503 kts 31°
2026-05-06 07:36 53.38755 22.09383 25475 ft 502 kts 31°
2026-05-06 07:37 53.40875 22.11548 25787 ft 501 kts 31°
2026-05-06 07:37 53.43639 22.14371 26197 ft 500 kts 31°
2026-05-06 07:37 53.46572 22.17378 26636 ft 499 kts 31°
2026-05-06 07:37 53.48046 22.18895 26854 ft 498 kts 31°
2026-05-06 07:38 53.50707 22.21661 27194 ft 497 kts 31°
2026-05-06 07:38 53.53032 22.24070 27528 ft 497 kts 31°
2026-05-06 07:38 53.55674 22.26801 27920 ft 496 kts 31°
2026-05-06 07:38 53.57307 22.28482 28161 ft 496 kts 31°
2026-05-06 07:39 53.60253 22.31512 28592 ft 495 kts 31°
2026-05-06 07:39 53.63187 22.34537 29034 ft 494 kts 31°
2026-05-06 07:39 53.66110 22.37562 29479 ft 492 kts 31°
2026-05-06 07:39 53.69023 22.40588 29977 ft 490 kts 31°
2026-05-06 07:40 53.71924 22.43603 30363 ft 489 kts 30°
2026-05-06 07:40 53.74781 22.46582 30734 ft 488 kts 30°
2026-05-06 07:40 53.77672 22.49603 31115 ft 487 kts 30°
2026-05-06 07:40 53.80552 22.52614 31483 ft 487 kts 30°
2026-05-06 07:41 53.83433 22.55630 31854 ft 486 kts 30°
2026-05-06 07:41 53.86305 22.58639 32229 ft 485 kts 30°
2026-05-06 07:41 53.89173 22.61646 32594 ft 484 kts 30°
2026-05-06 07:41 53.92036 22.64655 32954 ft 483 kts 30°
2026-05-06 07:42 53.94888 22.67660 33314 ft 483 kts 30°
2026-05-06 07:42 53.97736 22.70668 33673 ft 482 kts 30°
2026-05-06 07:42 54.00582 22.73683 34008 ft 481 kts 30°
2026-05-06 07:42 54.03422 22.76700 34299 ft 481 kts 30°
2026-05-06 07:43 54.06252 22.79709 34592 ft 480 kts 30°
2026-05-06 07:43 54.09086 22.82723 34806 ft 480 kts 30°
2026-05-06 07:43 54.14741 22.88741 34863 ft 483 kts 30°
2026-05-06 07:44 54.20449 22.94838 34866 ft 484 kts 30°
2026-05-06 07:44 54.26161 23.00966 34876 ft 484 kts 30°
2026-05-06 07:45 54.32172 23.06007 34887 ft 479 kts 15°
2026-05-06 07:45 54.38646 23.08446 34895 ft 476 kts
2026-05-06 07:46 54.43107 23.09873 34893 ft 477 kts
2026-05-06 07:46 54.49786 23.12039 34891 ft 478 kts
2026-05-06 07:47 54.56112 23.14088 34901 ft 479 kts
2026-05-06 07:47 54.61614 23.15875 34911 ft 480 kts
2026-05-06 07:48 54.68187 23.18020 34903 ft 481 kts
2026-05-06 07:48 54.74722 23.20142 34909 ft 482 kts
2026-05-06 07:49 54.81321 23.22300 34919 ft 482 kts
2026-05-06 07:49 54.87927 23.24468 34937 ft 483 kts
2026-05-06 07:50 54.94503 23.26646 34947 ft 483 kts
2026-05-06 07:50 55.01117 23.28832 34948 ft 484 kts
2026-05-06 07:51 55.07728 23.31024 34954 ft 484 kts
2026-05-06 07:51 55.14345 23.33224 34983 ft 484 kts
2026-05-06 07:52 55.20964 23.35445 34975 ft 484 kts
2026-05-06 07:52 55.27578 23.37665 34978 ft 484 kts
2026-05-06 07:53 55.34191 23.39892 34987 ft 484 kts
2026-05-06 07:53 55.40799 23.42119 34999 ft 484 kts
2026-05-06 07:54 55.47408 23.44360 34998 ft 484 kts
2026-05-06 07:54 55.54017 23.46601 35017 ft 483 kts
2026-05-06 07:55 55.60587 23.48845 35004 ft 484 kts
2026-05-06 07:55 55.67214 23.51113 35030 ft 485 kts
2026-05-06 07:56 55.73838 23.53394 35014 ft 485 kts
2026-05-06 07:56 55.80473 23.55685 35014 ft 485 kts
2026-05-06 07:57 55.87109 23.57975 35019 ft 486 kts
2026-05-06 07:57 55.93706 23.60264 35042 ft 486 kts
2026-05-06 07:58 56.00350 23.62581 35032 ft 486 kts
2026-05-06 07:58 56.06985 23.64899 35030 ft 486 kts
2026-05-06 07:59 56.13623 23.67226 35023 ft 486 kts
2026-05-06 07:59 56.20270 23.69571 35049 ft 486 kts
2026-05-06 08:00 56.26905 23.71923 35034 ft 486 kts
2026-05-06 08:00 56.33530 23.74270 35030 ft 486 kts
2026-05-06 08:01 56.40122 23.76636 35039 ft 486 kts
2026-05-06 08:01 56.46748 23.79260 35030 ft 487 kts
2026-05-06 08:02 56.53355 23.81983 35031 ft 487 kts
2026-05-06 08:02 56.59964 23.84670 35037 ft 487 kts
2026-05-06 08:03 56.66596 23.87171 35036 ft 486 kts
2026-05-06 08:03 56.73241 23.89531 35059 ft 486 kts
2026-05-06 08:04 56.79837 23.91920 35004 ft 482 kts
2026-05-06 08:04 56.86375 23.94364 35008 ft 483 kts
2026-05-06 08:05 56.92965 23.96838 35015 ft 484 kts
2026-05-06 08:05 56.99574 23.99128 35029 ft 483 kts
2026-05-06 08:06 57.06185 24.01247 35052 ft 482 kts
2026-05-06 08:06 57.12786 24.03399 35047 ft 482 kts
2026-05-06 08:07 57.19377 24.05613 35050 ft 481 kts
2026-05-06 08:07 57.25965 24.07862 35048 ft 481 kts
2026-05-06 08:08 57.32539 24.10103 35026 ft 478 kts
2026-05-06 08:08 57.39072 24.12325 35026 ft 477 kts
2026-05-06 08:09 57.45614 24.14550 35036 ft 478 kts
2026-05-06 08:09 57.52163 24.16789 35048 ft 479 kts
2026-05-06 08:10 57.58690 24.19044 35041 ft 479 kts
2026-05-06 08:10 57.65240 24.21320 35046 ft 479 kts
2026-05-06 08:11 57.71795 24.23591 35050 ft 479 kts
2026-05-06 08:11 57.78352 24.25860 35045 ft 480 kts
2026-05-06 08:12 57.84919 24.28153 35005 ft 479 kts
2026-05-06 08:12 57.88146 24.29301 35032 ft 464 kts
2026-05-06 08:12 57.91264 24.30423 35036 ft 449 kts
2026-05-06 08:13 57.94282 24.31492 35034 ft 434 kts
2026-05-06 08:13 57.97215 24.32510 35032 ft 424 kts 360°
2026-05-06 08:13 58.02999 24.34445 35033 ft 420 kts 359°
2026-05-06 08:14 58.08753 24.36386 35026 ft 420 kts 359°
2026-05-06 08:14 58.14492 24.38355 35027 ft 419 kts 359°
2026-05-06 08:15 58.20221 24.40347 35029 ft 418 kts 359°
2026-05-06 08:15 58.25945 24.42328 35027 ft 418 kts 359°
2026-05-06 08:16 58.31670 24.44316 35026 ft 418 kts 359°
2026-05-06 08:16 58.37367 24.46321 35026 ft 418 kts 359°
2026-05-06 08:17 58.43090 24.48349 35025 ft 417 kts 359°
2026-05-06 08:17 58.48803 24.50357 35034 ft 417 kts 359°
2026-05-06 08:18 58.54517 24.52371 35029 ft 417 kts 359°
2026-05-06 08:18 58.60227 24.54392 35023 ft 417 kts 359°
2026-05-06 08:19 58.65934 24.56426 35022 ft 418 kts 359°
2026-05-06 08:19 58.71675 24.58487 35016 ft 419 kts 359°
2026-05-06 08:20 58.77423 24.60548 34695 ft 420 kts 359°
2026-05-06 08:20 58.83112 24.62598 34517 ft 414 kts 358°
2026-05-06 08:21 58.88761 24.64624 34224 ft 410 kts 358°
2026-05-06 08:21 58.91519 24.65622 33884 ft 407 kts 357°
2026-05-06 08:21 58.94289 24.66625 33482 ft 403 kts 357°
2026-05-06 08:22 58.97032 24.67619 33158 ft 400 kts 357°
2026-05-06 08:22 58.99760 24.68609 32771 ft 397 kts 357°
2026-05-06 08:22 59.02467 24.69598 32396 ft 395 kts 357°
2026-05-06 08:22 59.05157 24.70582 32065 ft 391 kts 357°
2026-05-06 08:23 59.07823 24.71553 31714 ft 388 kts 356°
2026-05-06 08:23 59.10474 24.72519 31352 ft 386 kts 356°
2026-05-06 08:23 59.13152 24.73478 30497 ft 398 kts 356°
2026-05-06 08:23 59.15890 24.74457 30034 ft 400 kts 356°
2026-05-06 08:24 59.18644 24.75460 29748 ft 404 kts 356°
2026-05-06 08:24 59.21411 24.76479 29455 ft 404 kts 357°
2026-05-06 08:24 59.24172 24.77505 29144 ft 404 kts 357°
2026-05-06 08:24 59.26965 24.78538 28243 ft 413 kts 358°
2026-05-06 08:25 59.29809 24.79581 27426 ft 419 kts 358°
2026-05-06 08:25 59.32707 24.80643 26471 ft 428 kts 359°
2026-05-06 08:25 59.35671 24.81734 25442 ft 439 kts
2026-05-06 08:25 59.38693 24.82857 24537 ft 446 kts
2026-05-06 08:26 59.41710 24.84405 23614 ft 462 kts 10°
2026-05-06 08:26 59.44725 24.86782 22740 ft 468 kts 15°
2026-05-06 08:26 59.47705 24.89302 21964 ft 466 kts 15°
2026-05-06 08:26 59.50686 24.91791 21173 ft 464 kts 15°
2026-05-06 08:27 59.53655 24.94245 20429 ft 462 kts 15°
2026-05-06 08:27 59.56617 24.96684 19615 ft 461 kts 15°
2026-05-06 08:27 59.59571 24.99121 18861 ft 458 kts 15°
2026-05-06 08:27 59.62498 25.01554 18071 ft 456 kts 15°
2026-05-06 08:28 59.65376 25.03963 17290 ft 452 kts 16°
2026-05-06 08:28 59.68249 25.06380 16554 ft 447 kts 16°
2026-05-06 08:28 59.71064 25.08763 16337 ft 431 kts 16°
2026-05-06 08:28 59.73799 25.11091 16233 ft 414 kts 16°
2026-05-06 08:29 59.76393 25.13306 16134 ft 398 kts 15°
2026-05-06 08:29 59.78859 25.15414 15985 ft 384 kts 15°
2026-05-06 08:29 59.81271 25.17468 15851 ft 371 kts 14°
2026-05-06 08:29 59.83612 25.19455 15649 ft 360 kts 14°
2026-05-06 08:30 59.85877 25.21375 15496 ft 348 kts 14°
2026-05-06 08:30 59.88069 25.23227 15344 ft 336 kts 12°
2026-05-06 08:30 59.90245 25.24487 15200 ft 318 kts 360°
2026-05-06 08:30 59.92417 25.24881 14815 ft 310 kts 349°
2026-05-06 08:31 59.94554 25.24608 14381 ft 306 kts 346°
2026-05-06 08:31 59.96676 25.24290 13978 ft 306 kts 347°
2026-05-06 08:31 59.98799 25.23980 13511 ft 305 kts 347°
2026-05-06 08:31 60.00913 25.23681 13069 ft 303 kts 348°
2026-05-06 08:32 60.03009 25.23388 12656 ft 301 kts 348°
2026-05-06 08:32 60.05091 25.23094 12256 ft 298 kts 349°
2026-05-06 08:32 60.07156 25.22799 11850 ft 296 kts 349°
2026-05-06 08:32 60.09184 25.22508 11447 ft 295 kts 350°
2026-05-06 08:33 60.11225 25.22215 11060 ft 293 kts 351°
2026-05-06 08:33 60.13252 25.21920 10642 ft 292 kts 352°
2026-05-06 08:33 60.15273 25.21627 10242 ft 290 kts 352°
2026-05-06 08:33 60.17274 25.21341 9985 ft 284 kts 352°
2026-05-06 08:34 60.19202 25.21073 9976 ft 275 kts 352°
2026-05-06 08:34 60.23121 25.20508 8793 ft 290 kts 353°
2026-05-06 08:34 60.25143 25.20215 8304 ft 291 kts 353°
2026-05-06 08:35 60.27157 25.19927 7865 ft 287 kts 353°
2026-05-06 08:35 60.29117 25.19713 7471 ft 277 kts 360°
2026-05-06 08:35 60.30988 25.20396 7101 ft 271 kts 17°
2026-05-06 08:35 60.32116 25.21451 6856 ft 268 kts 29°
2026-05-06 08:36 60.33543 25.23810 6564 ft 261 kts 46°
2026-05-06 08:36 60.35077 25.27282 6464 ft 243 kts 45°
2026-05-06 08:36 60.36211 25.29804 6369 ft 242 kts 45°
2026-05-06 08:36 60.36976 25.31506 6277 ft 241 kts 45°
2026-05-06 08:37 60.38099 25.34005 5989 ft 239 kts 45°
2026-05-06 08:37 60.39214 25.36492 5659 ft 238 kts 45°
2026-05-06 08:37 60.40359 25.38893 5360 ft 236 kts 34°
2026-05-06 08:37 60.41808 25.40303 5001 ft 229 kts
2026-05-06 08:38 60.43341 25.40291 4689 ft 221 kts 342°
2026-05-06 08:38 60.44699 25.38966 4346 ft 216 kts 318°
2026-05-06 08:38 60.45624 25.36620 4005 ft 214 kts 294°
2026-05-06 08:38 60.45983 25.33735 3694 ft 213 kts 275°
2026-05-06 08:39 60.46108 25.30744 3373 ft 211 kts 275°
2026-05-06 08:39 60.46017 25.27807 3091 ft 210 kts 255°
2026-05-06 08:39 60.45352 25.25162 3010 ft 215 kts 233°
2026-05-06 08:39 60.44372 25.22990 3018 ft 204 kts 230°
2026-05-06 08:40 60.43470 25.21003 3023 ft 180 kts 231°
2026-05-06 08:40 60.42659 25.19203 2954 ft 167 kts 231°
2026-05-06 08:40 60.41894 25.17491 2791 ft 161 kts 232°
2026-05-06 08:40 60.41156 25.15843 2596 ft 157 kts 231°
2026-05-06 08:41 60.40432 25.14234 2388 ft 153 kts 232°
2026-05-06 08:41 60.39742 25.12700 2169 ft 144 kts 231°
2026-05-06 08:41 60.39076 25.11218 1972 ft 140 kts 231°
2026-05-06 08:41 60.38422 25.09767 1784 ft 138 kts 231°
2026-05-06 08:42 60.37775 25.08331 1585 ft 138 kts 231°
2026-05-06 08:42 60.37132 25.06904 1393 ft 137 kts 230°
2026-05-06 08:42 60.36499 25.05501 1214 ft 135 kts 230°
2026-05-06 08:42 60.35870 25.04109 1021 ft 134 kts 229°
2026-05-06 08:43 60.35235 25.02710 837 ft 135 kts 230°
2026-05-06 08:43 60.34596 25.01299 651 ft 137 kts 230°
2026-05-06 08:43 60.33948 24.99876 485 ft 137 kts 230°
2026-05-06 08:43 60.33307 24.98455 259 ft 136 kts 231°
2026-05-06 08:44 60.32679 24.97061 173 ft 124 kts 228°
2026-05-06 08:44 60.32206 24.96019 177 ft 74 kts 227°
2026-05-06 08:44 60.31986 24.95533 172 ft 28 kts 230°
2026-05-06 08:44 60.31844 24.95311 174 ft 18 kts 207°
2026-05-06 08:45 60.31769 24.95250 174 ft 9 kts 199°
2026-05-06 08:45 60.31703 24.95208 172 ft 10 kts 197°
2026-05-06 08:45 60.31653 24.95205 171 ft 5 kts 156°
2026-05-06 08:45 60.31632 24.95279 170 ft 7 kts 91°
2026-05-06 08:46 60.31670 24.95391 170 ft 15 kts 46°
2026-05-06 08:46 60.31701 24.95543 168 ft 17 kts 112°
2026-05-06 08:46 60.31647 24.95707 167 ft 13 kts 76°
2026-05-06 08:46 60.31713 24.95871 167 ft 18 kts 48°
2026-05-06 08:47 60.31798 24.96058 167 ft 18 kts 47°
2026-05-06 08:47 60.31853 24.96219 167 ft 11 kts 83°
2026-05-06 08:47 60.31897 24.96416 167 ft 17 kts 47°
2026-05-06 08:47 60.31962 24.96557 167 ft 9 kts 48°
2026-05-06 08:48 60.31957 24.96655 167 ft 5 kts 135°
2026-05-06 08:48 60.31945 24.96680 167 ft 0 kts 136°
2026-05-06 09:19 60.31945 24.96679 167 ft 0 kts 136°